Theta_e
340 342 343 343 342 342 343 343 341 341 339 337 337 340 341 342 340 339 338 338 340 340 341 340 338 339 337 336 337 337 338 338 338 338 338 337 337 337 336 336 336 336 335 335 335 334 333 331 329 327 326 327
337 340 342 342 342 342 342 343 345 342 341 341 339 339 338 339 340 340 339 338 338 338 339 338 338 338 338 338 337 337 336 336 337 337 337 337 336 336 336 335 335 334 334 334 334 332 331 330 328 326 326 325
335 334 338 340 340 339 340 340 340 340 338 338 338 336 334 333 331 331 333 334 335 335 336 335 335 338 338 337 336 335 336 336 336 336 336 335 335 335 335 335 334 333 332 332 333 331 329 326 322 323 324 324
337 332 332 336 336 336 336 336 336 336 333 331 330 330 330 328 327 326 326 326 327 330 334 333 331 333 335 335 335 335 335 335 334 335 335 335 335 334 334 333 332 332 331 331 331 330 328 324 321 323 323 322
338 332 328 328 328 330 333 332 332 330 325 323 322 324 323 326 329 327 327 328 327 324 327 325 327 332 335 335 334 334 334 334 334 334 334 334 333 333 330 328 327 327 329 329 330 328 324 319 325 323 322 321
340 335 334 336 334 332 328 325 325 329 331 333 328 324 325 328 328 328 328 328 332 328 328 326 325 329 333 334 334 334 333 332 332 332 332 332 332 332 330 326 324 322 323 324 326 322 318 322 323 323 323 321
339 337 335 336 335 335 329 331 331 332 332 331 330 328 329 329 328 328 328 328 330 327 322 325 324 327 330 331 331 332 332 331 331 331 331 331 331 331 329 324 324 323 321 321 321 319 323 324 323 323 323 322
338 336 336 335 334 334 333 333 332 332 331 332 332 331 331 328 328 329 326 327 327 327 326 323 322 324 325 327 326 327 327 328 329 328 328 327 328 327 323 324 325 325 324 322 322 324 325 322 322 324 323 322
338 337 336 335 334 333 331 332 331 332 331 332 332 331 331 329 327 329 328 327 327 327 327 325 325 325 325 325 323 323 323 323 321 321 320 319 320 321 324 322 321 324 323 323 323 324 323 322 321 322 323 322
338 338 335 336 334 333 332 331 330 331 330 332 333 331 330 329 326 326 327 326 325 324 326 326 324 325 325 324 324 324 322 322 321 321 322 321 322 322 321 321 321 322 321 321 323 324 323 323 323 324 322 323
337 336 336 336 335 334 331 331 331 330 329 330 332 331 329 328 325 325 323 325 324 325 327 325 323 324 325 324 324 324 322 321 321 320 321 321 322 320 320 320 320 320 321 320 320 321 321 320 322 324 324 322
336 335 336 336 334 335 330 330 330 329 330 331 331 330 328 327 326 325 324 325 324 324 326 325 324 325 323 322 322 323 321 321 319 320 319 320 320 319 319 319 320 320 320 320 319 319 319 320 319 322 322 322
333 334 335 335 334 334 331 332 331 330 330 331 329 329 329 327 326 325 326 325 325 324 323 323 323 323 322 323 322 322 320 322 319 319 318 319 318 318 317 318 318 319 319 319 319 320 320 320 319 319 320 321
334 333 333 335 335 334 332 332 332 332 330 330 329 328 329 327 327 326 325 325 324 324 323 323 323 323 322 322 321 322 319 319 319 318 317 318 318 319 317 318 319 317 317 317 317 318 318 319 319 318 320 319
334 334 333 333 335 335 333 333 333 332 330 329 328 328 329 328 327 326 326 326 325 324 323 323 324 321 321 321 322 321 319 318 318 318 318 319 317 317 316 316 317 317 316 317 318 317 317 319 318 318 317 318
334 334 334 333 334 335 334 333 332 332 331 327 328 328 329 328 328 327 326 326 326 325 324 323 322 321 320 320 319 320 319 318 318 317 317 318 317 317 318 317 316 318 316 315 317 316 317 317 317 318 317 317
334 334 335 334 333 335 336 334 332 331 331 331 330 328 330 328 328 327 326 325 326 324 324 324 323 321 320 321 320 320 319 318 317 317 317 317 318 317 317 316 315 318 317 314 314 316 316 316 315 315 315 315
334 333 333 333 333 332 336 334 332 332 331 330 330 330 330 327 326 325 326 326 325 326 324 324 323 322 321 320 319 319 319 318 316 315 315 314 315 315 314 313 315 316 314 313 313 314 314 314 314 314 314 314
334 333 334 333 332 333 334 334 333 333 333 330 331 331 330 329 328 326 325 325 324 325 324 323 322 323 322 322 319 318 317 317 317 316 316 314 315 314 313 313 313 313 313 313 314 313 313 315 312 312 312 313
334 335 334 333 329 332 331 333 334 333 333 332 331 331 330 330 330 329 327 325 324 324 326 324 322 323 323 322 320 319 317 318 316 316 315 315 315 313 312 313 313 312 312 313 313 312 310 310 310 308 309 309
332 333 334 334 333 333 331 331 332 332 333 332 332 331 330 331 330 330 330 328 327 325 325 324 322 323 324 323 320 317 315 316 316 315 316 314 314 314 312 312 311 310 311 311 312 310 309 309 308 308 307 307
331 330 331 334 333 332 333 332 331 332 333 333 332 332 331 331 331 330 330 329 329 327 326 325 323 324 325 323 320 317 316 315 316 315 315 313 312 314 312 311 311 311 309 311 309 307 307 307 306 306 306 305
331 330 329 329 331 332 332 332 332 333 332 332 333 332 332 332 331 329 329 328 327 326 326 325 324 324 323 322 319 318 316 315 314 314 314 313 312 312 313 311 310 310 310 307 306 305 305 303 303 302 302 301
329 328 327 325 326 327 330 331 330 332 331 331 332 333 332 332 331 330 329 329 328 327 327 327 325 323 322 321 319 318 316 314 313 313 313 312 312 310 309 309 305 304 304 303 303 302 302 300 300 301 302 303
327 326 325 324 325 324 324 327 329 329 330 330 328 332 333 332 332 330 329 328 329 328 325 326 326 324 323 321 318 317 316 315 314 314 313 312 311 310 308 305 303 304 305 304 303 301 300 302 302 301 301 301
328 328 327 326 326 326 325 325 326 327 328 330 331 329 332 331 331 330 329 328 329 328 327 326 324 323 324 324 319 317 316 314 312 313 312 312 310 309 309 306 304 304 306 303 303 303 303 302 303 302 301 300
327 327 327 327 325 325 323 325 327 327 327 330 329 329 330 331 330 329 329 328 327 328 328 327 326 324 325 322 319 315 314 313 313 313 312 311 311 306 306 308 306 306 307 305 305 305 303 302 303 303 299 300
326 327 327 327 325 326 325 323 323 326 326 327 328 328 329 329 330 329 329 330 328 328 329 328 327 326 324 323 320 317 314 313 313 312 311 311 311 310 307 306 305 305 306 307 306 301 302 301 300 300 302 302
325 325 325 325 322 322 320 320 319 320 321 322 325 328 327 328 327 330 330 331 331 329 328 328 328 326 325 324 322 319 317 315 315 313 312 312 311 311 311 307 307 305 306 306 309 308 300 298 297 299 303 303
325 324 323 321 320 318 317 316 316 317 317 318 320 321 322 329 330 330 331 332 331 330 327 328 327 325 323 322 321 320 319 318 316 314 313 313 312 311 311 311 308 306 304 306 306 307 309 309 306 304 302 303
323 321 321 320 319 318 318 316 316 316 318 320 319 321 320 320 323 329 330 330 330 329 328 327 325 324 324 324 321 319 318 317 317 315 313 313 312 312 311 310 308 309 305 303 304 305 306 306 306 305 303 303
Wind_Speed
8 7 8 7 8 7 9 10 11 10 10 10 10 13 12 12 11 9 11 12 12 11 11 11 10 10 12 13 13 12 13 13 13 13 13 13 13 12 12 11 10 10 10 10 9 8 9 10 10 10 8 5
8 8 8 7 7 8 9 9 8 9 8 9 10 10 10 9 9 10 11 11 11 11 11 10 10 12 12 12 13 12 12 12 12 12 12 12 12 12 11 10 10 10 9 9 8 7 8 8 8 7 6 5
6 9 8 8 8 9 9 9 9 9 9 9 10 9 10 10 10 10 10 10 10 10 11 11 11 10 10 12 12 11 11 11 11 11 11 11 11 11 10 10 10 9 9 7 7 7 8 10 10 8 8 6
4 7 9 9 9 9 9 9 9 9 9 9 9 9 10 10 8 7 7 9 8 11 10 10 8 9 9 11 10 10 10 10 10 10 10 10 9 10 9 10 10 9 8 7 6 6 8 8 9 2 6 6
5 6 9 7 9 9 9 9 9 9 9 8 7 7 6 6 5 4 4 4 4 8 6 8 8 7 8 10 10 9 9 9 9 9 9 9 8 7 9 9 9 8 7 6 6 7 7 9 5 5 5 5
5 5 6 6 6 5 6 7 7 6 4 5 3 4 4 3 4 5 3 4 5 5 5 6 9 9 9 9 7 7 8 8 8 7 7 6 6 8 8 9 5 4 5 5 6 7 8 6 2 5 5 4
6 6 4 5 5 5 6 5 4 4 5 4 4 3 3 4 6 4 3 5 5 6 8 7 9 9 9 9 10 11 9 8 7 6 6 5 4 4 4 3 4 4 2 1 5 6 5 2 5 4 5 5
6 5 5 5 5 5 5 5 3 3 5 4 5 4 5 4 4 6 5 8 11 9 5 6 8 9 9 10 10 10 7 7 6 6 5 3 3 3 3 4 3 5 4 3 3 4 4 2 3 5 4 5
6 6 6 6 6 6 5 6 5 4 6 4 6 5 5 1 4 6 5 5 6 6 5 4 4 4 4 4 4 7 4 4 3 2 2 2 4 3 5 2 2 5 5 4 3 5 0 4 3 3 4 4
7 6 5 5 6 6 6 6 6 4 6 4 6 4 2 4 2 3 6 4 4 4 6 5 5 5 5 4 4 4 3 5 4 3 4 3 4 5 2 1 3 3 1 1 6 1 4 2 1 3 3 4
6 6 4 6 5 6 4 7 5 4 6 5 5 4 2 5 4 3 6 5 4 4 5 6 6 6 6 5 5 4 4 5 4 4 5 5 5 1 3 2 3 3 3 3 3 3 2 2 1 3 3 4
7 5 4 5 5 5 5 6 5 3 5 4 6 4 2 3 5 4 6 5 5 5 5 5 4 6 4 5 4 6 2 4 3 2 2 3 1 2 1 1 1 0 1 3 3 3 1 1 1 0 4 5
4 5 5 4 5 4 4 4 4 3 3 4 6 6 3 4 4 5 4 5 5 3 3 4 3 3 4 5 3 5 2 5 3 3 3 2 2 2 2 3 2 1 2 2 3 1 1 1 1 1 1 4
4 5 5 5 5 5 5 4 4 4 3 3 6 6 5 3 3 5 4 5 5 5 3 3 3 2 3 4 3 4 3 4 4 4 3 3 3 4 3 3 4 3 3 3 2 3 2 2 2 1 1 2
5 4 4 5 6 5 6 5 4 3 2 2 3 5 5 4 4 3 4 5 5 4 4 3 4 3 3 3 4 5 3 3 4 4 4 4 4 3 3 3 4 4 3 3 4 1 3 4 2 3 2 2
5 5 4 4 6 6 6 5 5 5 4 3 3 3 4 5 4 4 3 3 6 5 5 4 4 3 3 4 3 5 3 3 3 3 3 4 3 3 4 4 3 5 3 3 4 2 1 1 3 4 3 3
4 4 4 5 4 6 6 6 5 6 6 5 4 3 3 4 4 4 4 3 4 5 6 5 5 4 3 4 5 4 4 4 4 2 1 1 1 1 1 2 3 4 4 3 3 3 4 3 3 2 2 3
5 4 4 4 4 3 6 6 6 5 5 5 5 5 4 3 3 2 4 4 3 4 5 4 5 4 4 4 4 4 4 5 3 3 2 3 2 3 2 3 3 2 3 3 3 2 2 3 3 3 2 1
6 5 4 4 4 4 6 6 6 5 5 4 6 5 5 5 4 3 3 4 2 4 4 3 4 6 6 6 4 6 5 5 5 4 5 4 4 4 5 4 3 3 4 4 5 3 3 4 3 1 1 1
7 7 5 5 5 4 4 6 6 5 6 5 4 5 5 4 5 6 4 4 3 2 4 5 5 5 5 5 5 6 5 5 6 5 4 5 5 5 5 4 4 3 4 4 4 4 3 3 3 3 2 2
5 7 8 7 6 5 4 5 6 5 5 5 4 5 5 6 6 5 5 6 6 4 3 4 3 3 4 4 5 5 4 6 6 5 5 5 5 5 5 5 4 4 4 4 4 3 3 2 2 2 3 3
7 6 7 7 7 6 6 5 5 6 6 6 6 5 6 5 7 8 9 9 7 7 6 5 5 6 6 6 6 6 5 6 5 5 5 5 4 5 4 4 5 5 4 4 3 1 1 0 0 1 1 1
7 6 4 5 7 7 7 6 6 6 6 6 6 6 6 7 7 7 7 7 6 5 5 5 5 5 5 5 5 6 6 5 5 5 4 5 4 4 5 4 3 4 5 3 2 1 1 1 1 2 2 2
7 7 6 6 5 6 7 7 6 6 6 6 6 7 7 7 7 8 8 8 8 8 7 7 6 6 5 5 6 6 6 6 6 7 6 5 5 4 3 1 2 3 4 2 1 3 3 3 3 4 4 5
7 8 7 4 6 6 6 7 7 7 7 7 6 7 8 8 7 5 8 8 7 7 7 7 6 6 6 5 7 7 8 7 6 6 6 5 4 5 4 3 2 2 3 2 2 2 4 6 5 7 6 7
7 6 7 7 7 6 6 7 7 7 6 7 6 5 8 8 7 7 6 7 7 7 7 7 7 6 7 6 7 7 6 5 5 5 4 4 4 4 7 5 5 3 4 2 6 4 4 4 4 9 8 8
8 7 7 7 6 7 4 4 6 7 6 6 6 4 5 7 6 6 6 5 6 7 7 7 7 6 6 6 6 6 5 5 6 6 6 6 7 5 3 3 4 7 8 5 2 1 2 5 4 2 2 5
6 7 6 6 6 6 6 4 1 1 3 4 4 6 5 4 6 6 7 7 7 7 7 8 7 6 6 6 6 7 6 5 6 6 6 6 7 5 4 4 5 5 6 5 6 2 6 2 1 8 5 5
6 6 6 6 4 2 3 2 2 2 1 3 5 6 5 5 4 5 6 7 7 7 7 6 6 6 6 6 7 6 7 7 8 8 7 7 6 7 8 6 4 4 6 7 7 5 1 1 1 6 5 3
6 7 8 7 7 6 4 5 4 6 5 4 3 4 3 5 6 6 6 7 7 7 6 6 6 6 6 5 6 6 7 7 5 6 7 8 8 8 8 9 6 4 5 8 9 10 8 6 6 3 2 3
7 6 6 6 7 6 7 7 4 2 3 5 4 4 4 4 5 6 7 6 5 5 6 6 6 7 7 7 6 6 6 6 7 7 7 6 7 8 8 6 8 8 5 3 6 8 10 10 8 1 1 7
Wind_Direction
116 110 108 101 80 65 105 117 114 111 109 111 97 75 81 74 78 92 91 79 70 61 66 79 85 91 90 87 86 85 84 82 82 82 84 84 84 85 85 83 74 66 58 51 39 34 42 45 44 49 72 72
118 113 105 96 79 71 73 73 84 111 102 81 78 77 74 69 72 80 81 81 77 72 64 61 75 82 85 85 84 82 82 83 82 82 83 84 85 84 82 75 72 65 56 47 32 38 37 34 28 12 69 80
120 115 107 102 90 81 75 80 92 100 98 92 82 81 79 82 83 79 79 80 77 64 64 73 75 81 89 90 86 87 85 84 84 83 81 83 87 88 82 73 68 60 50 35 22 19 15 10 357 9 66 73
125 120 115 107 97 92 90 94 97 102 98 95 93 95 101 97 89 87 87 86 76 72 78 83 88 86 93 94 93 91 91 88 87 87 88 90 91 88 84 74 64 55 46 24 5 4 357 356 337 359 77 70
131 124 115 104 100 99 102 102 103 103 101 98 103 107 119 128 111 106 106 88 84 76 81 84 80 81 81 94 93 88 89 90 88 89 91 90 93 98 95 81 64 48 37 18 350 345 347 345 334 46 77 81
132 146 145 127 127 118 112 112 117 120 124 123 121 133 154 192 157 143 159 111 104 99 88 81 90 88 88 90 96 96 96 88 88 85 93 100 118 134 130 116 105 81 50 6 329 333 327 333 334 56 70 92
133 160 157 148 145 133 132 139 153 153 144 157 144 183 199 217 163 169 124 120 102 94 94 96 94 90 91 89 84 81 71 73 74 82 103 115 149 170 149 142 135 129 147 249 299 308 314 307 61 51 55 61
146 176 159 155 152 141 150 150 198 175 169 167 157 199 223 218 140 94 95 110 114 111 103 97 95 102 101 106 105 104 100 89 82 66 42 354 301 286 249 252 174 150 168 203 235 270 280 66 60 69 58 75
163 184 168 158 158 156 161 155 190 191 176 174 163 204 234 155 113 120 124 127 136 137 130 128 129 127 135 133 138 138 135 133 129 134 165 251 273 271 245 237 146 170 165 183 223 241 316 82 66 74 70 67
166 175 164 162 158 160 162 159 187 178 173 170 161 198 236 117 114 127 142 144 165 172 152 156 167 178 177 169 168 198 181 146 161 193 178 196 225 239 247 8 347 36 115 194 211 233 72 67 81 115 96 98
147 167 172 156 159 153 169 153 175 178 168 173 158 176 208 124 146 186 142 151 179 215 159 175 181 187 196 161 163 200 191 146 178 194 171 201 222 265 64 24 15 1 3 348 7 58 69 51 353 119 115 122
150 168 166 155 153 158 154 150 168 188 173 174 154 162 196 154 160 196 147 170 178 217 157 178 185 189 165 153 166 201 168 139 144 208 221 199 181 62 68 68 18 318 342 329 342 36 57 22 328 122 153 139
164 164 165 153 140 160 145 150 165 196 197 165 151 160 197 172 182 194 162 165 175 182 171 179 177 167 149 154 180 181 168 149 173 197 225 155 127 172 198 161 191 243 223 228 256 220 128 191 270 319 118 139
176 169 172 161 151 172 146 170 169 197 221 177 151 160 190 171 207 188 175 162 168 165 185 166 168 176 162 167 181 160 185 166 169 196 210 169 185 194 201 174 197 184 238 247 254 192 182 173 227 218 183 141
182 178 177 168 161 159 158 174 176 187 221 190 158 172 171 168 209 251 193 158 167 167 162 163 162 194 187 172 172 162 190 175 175 194 189 187 194 187 192 207 195 171 229 220 256 229 163 190 204 241 207 193
179 186 187 179 160 163 166 172 174 182 209 199 203 196 163 171 183 234 264 183 174 163 162 164 165 198 199 188 181 163 182 170 186 198 201 186 188 200 188 211 182 183 231 234 225 252 241 203 204 232 220 208
177 185 188 183 172 164 170 176 170 184 191 190 193 210 175 170 171 199 236 251 180 165 160 164 170 190 207 187 176 169 176 165 179 221 195 148 90 329 267 228 206 181 216 248 242 208 218 211 267 260 225 223
177 199 189 181 187 171 164 165 178 190 189 181 185 193 180 156 166 202 215 248 222 164 158 162 164 182 210 190 173 169 164 157 170 199 182 168 146 251 246 249 250 197 225 265 264 203 180 177 233 258 282 297
177 188 191 190 193 194 154 169 176 189 198 193 184 176 178 172 173 222 251 255 220 184 169 184 182 186 199 184 171 166 167 166 186 189 193 171 180 222 230 229 233 208 203 221 249 230 185 202 216 154 205 228
176 182 187 188 196 206 177 170 177 183 192 196 186 156 167 179 182 185 235 265 269 208 194 191 196 213 175 176 167 168 166 169 189 202 200 198 177 199 222 210 244 220 212 220 232 220 173 186 186 178 215 223
187 181 182 185 186 195 193 180 183 188 175 187 195 192 178 175 181 193 199 224 245 251 219 200 184 214 176 173 167 170 172 187 199 190 199 209 199 186 199 200 217 231 211 227 230 184 158 179 158 199 215 213
191 193 178 179 178 188 196 193 189 191 182 188 194 199 200 188 186 191 199 205 214 217 220 208 197 204 201 185 174 177 181 198 204 203 188 208 214 201 204 203 202 217 211 212 198 161 164 180 122 287 298 279
187 190 187 172 173 185 197 197 197 198 203 191 187 195 196 193 198 201 202 202 202 212 221 226 216 209 207 182 179 178 194 201 203 213 205 193 212 204 203 207 214 201 190 161 119 129 178 174 253 282 286 293
181 181 191 193 186 186 191 196 196 202 208 203 197 193 190 192 195 191 196 196 201 205 209 215 214 210 207 190 180 185 191 207 204 206 205 206 188 191 224 206 91 99 107 81 106 243 275 259 253 255 253 255
171 176 182 183 193 201 189 190 192 202 205 208 208 190 191 194 203 194 185 194 196 203 204 209 210 209 214 192 187 185 201 202 208 206 200 194 182 176 184 217 137 101 105 108 297 259 267 278 240 236 228 237
182 185 185 182 195 190 193 187 190 203 205 206 215 203 189 190 195 202 197 192 200 207 204 206 209 207 211 199 193 199 201 200 204 201 195 179 205 205 189 211 175 173 117 258 230 266 313 281 253 230 218 230
183 181 180 177 184 182 191 193 190 189 192 196 204 208 180 183 185 188 207 206 200 205 208 207 205 212 217 198 188 191 204 202 206 199 192 187 192 216 224 185 175 184 186 220 129 173 349 282 318 321 293 254
177 172 173 173 170 177 166 174 116 109 172 195 207 229 218 195 180 187 204 213 210 211 213 207 205 207 212 205 184 192 202 206 215 204 202 194 203 176 207 218 227 190 187 187 121 283 217 237 102 301 262 249
168 157 157 160 148 127 98 79 123 134 236 195 205 220 219 224 196 202 211 216 213 206 211 208 211 218 215 205 200 192 203 211 213 206 200 195 196 192 203 224 223 201 184 202 208 199 109 305 272 229 278 338
165 162 159 156 165 181 190 204 210 210 198 201 202 200 192 195 205 215 225 219 214 211 204 213 217 219 214 206 204 198 204 209 198 198 196 198 200 211 212 220 217 214 199 208 214 230 240 225 249 255 226 31
160 158 161 169 172 175 186 195 222 195 195 206 207 193 210 205 191 195 200 203 202 208 204 211 216 216 213 209 199 196 198 201 201 200 203 200 205 215 216 210 231 228 201 198 234 228 242 262 268 208 270 256